Temp
17 16 16 17 16 16 17 16 17 17 18 18 17 18 18 18 18 18 18 18 18 19 18 18 18 18 18 18 18 18 18 18 18 18 18 18 18 18 18 18 18 18 18
16 16 16 16 16 16 17 17 17 17 18 18 18 18 18 18 18 18 19 18 18 18 19 19 17 17 17 18 18 17 17 17 18 17 17 17 17 17 17 17 17 17 17
16 15 15 16 16 15 17 17 17 17 17 18 18 18 18 18 18 19 18 18 18 18 18 17 17 17 17 18 18 17 17 17 17 17 17 18 17 17 17 17 17 17 17
16 16 15 15 15 15 16 17 17 17 17 17 18 18 18 18 18 18 18 18 18 18 17 17 17 18 17 17 17 17 18 18 18 18 18 18 18 18 18 18 18 17 17
16 16 16 16 16 16 16 16 17 16 17 17 17 18 18 18 18 18 18 18 18 18 17 18 18 17 17 17 17 18 18 18 18 18 18 18 18 18 18 18 18 18 17
16 16 16 16 16 16 16 16 16 16 16 17 18 18 18 18 18 18 18 18 18 18 18 18 17 17 17 17 17 18 18 18 18 18 18 18 18 18 17 18 18 17 18
16 16 16 16 16 16 17 16 16 16 16 17 17 18 18 18 18 18 18 18 17 18 18 18 17 17 17 17 18 18 18 18 17 18 18 18 18 18 17 17 18 18 17
17 16 16 16 16 16 17 16 15 15 16 17 17 18 18 17 17 17 17 18 18 18 18 18 17 17 18 18 18 18 18 17 17 18 18 17 17 17 17 18 18 17 17
18 17 16 17 16 17 17 17 17 17 17 18 18 18 17 18 18 18 18 18 19 18 18 18 18 18 18 18 18 18 17 17 17 17 18 18 18 18 18 18 18 18 17
18 18 18 17 17 17 17 17 18 18 18 18 18 18 18 18 18 18 19 19 19 19 18 18 18 18 18 18 18 18 18 18 18 18 18 18 18 18 18 18 18 18 17
18 18 18 18 18 17 17 17 18 18 18 18 18 18 18 19 19 19 19 19 19 19 19 18 18 18 18 18 18 18 18 18 18 18 18 18 18 18 18 18 18 18 17
18 18 18 18 18 18 18 17 17 18 18 18 19 18 18 18 19 19 19 19 19 19 19 19 19 19 19 18 18 19 19 19 19 18 18 18 19 18 18 18 18 17 18
18 18 18 18 18 18 18 18 18 18 18 18 18 18 18 19 19 18 18 18 18 19 19 19 19 19 19 19 19 19 19 19 19 19 19 19 19 19 19 18 18 18 19
18 18 18 18 18 18 18 18 18 18 18 18 18 18 18 19 19 18 19 19 19 19 19 19 19 19 19 19 20 20 20 19 19 19 19 19 19 19 19 19 18 19 19
19 18 18 18 18 18 18 18 18 18 18 18 18 18 18 19 19 19 19 19 19 19 19 20 20 20 20 20 20 20 20 20 20 20 20 20 20 20 20 20 20 20 20
19 19 18 18 18 18 18 18 18 17 17 18 18 18 18 18 18 19 19 19 19 19 20 20 20 20 20 20 20 21 20 20 20 20 20 20 20 20 21 21 20 20 19
19 19 19 19 18 19 18 18 18 18 18 18 18 18 18 18 18 19 19 19 19 19 20 20 20 20 20 20 20 20 20 20 20 20 20 21 21 21 21 21 21 20 20
19 19 18 19 19 18 18 18 17 18 18 18 18 18 18 18 19 19 19 19 19 19 20 20 20 20 21 20 20 20 20 21 21 21 21 21 21 21 21 21 20 20 19
19 19 19 19 19 19 19 18 18 18 18 18 18 18 18 18 19 19 19 19 19 20 20 20 20 21 21 21 21 20 21 21 21 21 21 21 21 21 21 21 20 20 19
20 20 19 19 19 19 18 18 18 18 18 18 18 18 18 19 18 19 19 19 19 20 20 20 20 21 21 21 21 21 21 21 21 21 21 21 21 21 21 21 21 20 20
20 20 20 19 19 18 19 19 19 19 19 18 18 18 18 18 18 18 18 19 19 19 20 20 20 21 21 21 21 21 21 21 21 21 21 21 21 21 21 21 20 20 20
21 20 20 19 19 19 19 19 19 19 19 19 18 18 18 18 18 18 19 19 19 19 20 20 20 20 21 21 21 21 21 21 22 22 22 21 21 21 21 21 21 20 20
21 21 20 20 19 19 19 19 19 19 19 19 18 18 18 18 18 18 18 19 19 19 20 20 20 20 21 21 21 21 21 21 22 22 22 21 21 21 22 22 21 21 21
22 21 20 20 19 19 19 18 19 19 19 19 19 19 18 18 18 18 18 19 19 19 20 20 20 20 20 21 21 21 21 21 21 21 21 21 21 22 22 22 22 21 21
22 21 21 20 20 19 19 18 19 19 19 19 19 19 19 18 18 19 19 19 19 19 20 20 20 20 20 20 20 21 21 21 20 20 20 21 22 22 21 22 22 21 21
22 21 21 20 20 20 19 19 19 19 19 19 19 19 19 18 18 18 18 19 19 19 19 19 19 19 19 20 20 20 20 20 20 19 20 20 21 21 21 21 21 21 21
Height
1528 1530 1532 1535 1537 1541 1543 1545 1546 1547 1548 1549 1549 1552 1553 1555 1556 1556 1557 1558 1560 1562 1562 1564 1564 1565 1566 1566 1567 1567 1568 1568 1568 1569 1569 1569 1570 1571 1572 1574 1574 1575 1575
1528 1530 1533 1535 1539 1542 1545 1547 1548 1550 1550 1550 1551 1551 1555 1556 1557 1558 1559 1560 1561 1563 1564 1565 1566 1567 1568 1568 1568 1568 1569 1569 1570 1571 1572 1572 1573 1573 1574 1575 1576 1577 1578
1529 1532 1531 1535 1540 1543 1546 1549 1551 1551 1553 1552 1553 1555 1556 1558 1558 1559 1560 1562 1563 1565 1566 1567 1568 1568 1569 1569 1569 1570 1571 1571 1572 1573 1574 1574 1575 1576 1577 1578 1579 1579 1580
1531 1533 1536 1538 1541 1543 1547 1550 1552 1553 1554 1555 1555 1557 1558 1559 1560 1561 1562 1563 1565 1567 1570 1569 1570 1570 1571 1571 1572 1573 1573 1573 1574 1575 1575 1576 1577 1578 1578 1579 1580 1580 1581
1533 1536 1539 1541 1544 1547 1549 1552 1553 1555 1556 1557 1559 1559 1560 1561 1561 1563 1564 1566 1567 1569 1571 1572 1573 1573 1573 1574 1575 1576 1576 1576 1577 1577 1577 1578 1579 1579 1580 1581 1582 1582 1582
1537 1539 1541 1545 1547 1549 1552 1554 1556 1557 1559 1561 1561 1561 1562 1563 1563 1564 1567 1568 1570 1571 1573 1574 1575 1575 1575 1576 1578 1578 1578 1578 1579 1579 1580 1580 1581 1581 1582 1582 1583 1583 1583
1539 1542 1545 1547 1550 1552 1554 1556 1557 1558 1559 1561 1562 1563 1565 1566 1566 1567 1570 1570 1571 1573 1575 1576 1577 1577 1578 1579 1580 1580 1580 1580 1581 1581 1582 1583 1584 1584 1583 1584 1584 1585 1585
1542 1545 1548 1551 1553 1555 1556 1558 1559 1561 1562 1562 1564 1565 1567 1568 1567 1569 1570 1573 1574 1574 1576 1578 1579 1580 1581 1581 1582 1582 1582 1583 1583 1584 1585 1585 1586 1586 1586 1586 1586 1586 1586
1545 1548 1550 1552 1555 1556 1557 1560 1562 1563 1564 1564 1565 1568 1569 1569 1570 1571 1573 1574 1575 1576 1578 1580 1581 1582 1583 1583 1583 1584 1584 1585 1585 1586 1586 1587 1587 1587 1586 1586 1586 1587 1587
1547 1549 1552 1555 1556 1558 1559 1561 1562 1564 1565 1565 1568 1569 1570 1571 1572 1574 1575 1576 1577 1579 1580 1582 1583 1584 1584 1584 1585 1586 1586 1587 1587 1587 1586 1587 1586 1586 1586 1587 1587 1587 1587
1549 1551 1553 1557 1558 1559 1562 1563 1564 1565 1566 1568 1571 1571 1572 1574 1574 1576 1578 1579 1580 1581 1582 1584 1585 1585 1585 1586 1586 1587 1588 1588 1588 1588 1588 1588 1588 1588 1588 1589 1589 1589 1590
1549 1552 1554 1557 1559 1560 1561 1563 1565 1567 1568 1570 1572 1573 1574 1576 1576 1578 1580 1581 1583 1584 1585 1586 1586 1587 1587 1587 1587 1587 1588 1588 1588 1588 1587 1587 1588 1588 1589 1589 1590 1592 1589
1550 1552 1555 1558 1560 1561 1563 1565 1567 1568 1570 1572 1573 1575 1576 1578 1579 1581 1582 1584 1586 1587 1588 1588 1588 1588 1589 1589 1588 1588 1588 1588 1588 1587 1587 1588 1588 1588 1589 1590 1591 1588 1585
1549 1552 1555 1558 1560 1563 1564 1566 1568 1570 1572 1574 1576 1577 1578 1580 1582 1583 1584 1586 1587 1588 1589 1589 1589 1589 1589 1589 1588 1589 1589 1589 1589 1587 1587 1588 1588 1588 1589 1590 1589 1589 1588
1549 1552 1555 1558 1560 1563 1565 1567 1569 1572 1573 1575 1577 1578 1580 1581 1583 1584 1586 1587 1587 1588 1589 1590 1590 1590 1589 1589 1589 1590 1591 1590 1589 1589 1589 1589 1589 1589 1589 1589 1589 1588 1586
1550 1552 1555 1558 1561 1564 1566 1569 1571 1573 1575 1576 1578 1580 1581 1583 1584 1585 1587 1588 1588 1589 1590 1591 1591 1591 1590 1590 1590 1591 1591 1591 1591 1590 1590 1590 1590 1589 1589 1588 1587 1587 1588
1551 1553 1556 1559 1561 1564 1567 1570 1572 1574 1576 1578 1579 1581 1582 1584 1585 1586 1587 1589 1590 1590 1591 1592 1593 1592 1591 1591 1591 1591 1591 1592 1591 1591 1591 1591 1590 1589 1588 1588 1587 1586 1586
1551 1553 1556 1558 1561 1564 1567 1570 1572 1575 1576 1578 1580 1582 1583 1584 1586 1587 1588 1590 1591 1591 1591 1592 1593 1592 1592 1591 1591 1592 1592 1592 1591 1590 1590 1591 1589 1588 1588 1587 1588 1585 1584
1550 1553 1555 1558 1561 1564 1567 1569 1572 1574 1576 1578 1580 1582 1583 1585 1586 1588 1589 1590 1591 1591 1591 1592 1593 1593 1592 1592 1592 1592 1592 1591 1591 1590 1590 1590 1588 1588 1587 1585 1584 1583 1581
1549 1552 1555 1558 1561 1563 1566 1569 1571 1574 1576 1578 1580 1582 1583 1585 1586 1587 1589 1591 1591 1591 1592 1592 1593 1593 1592 1593 1592 1592 1592 1591 1591 1590 1589 1589 1587 1587 1586 1584 1582 1579 1578
1547 1550 1553 1556 1559 1561 1562 1566 1569 1571 1575 1577 1579 1581 1583 1584 1585 1587 1589 1590 1591 1591 1592 1592 1593 1593 1593 1593 1592 1592 1591 1590 1590 1588 1587 1587 1586 1585 1584 1582 1579 1576 1575
1543 1547 1551 1554 1557 1559 1562 1565 1568 1571 1573 1576 1578 1580 1581 1582 1583 1585 1588 1589 1590 1591 1591 1592 1592 1593 1593 1593 1593 1592 1591 1591 1589 1587 1586 1585 1585 1584 1582 1581 1579 1576 1574
1540 1544 1547 1551 1554 1557 1561 1564 1566 1568 1571 1573 1576 1578 1579 1580 1582 1584 1586 1587 1588 1589 1590 1591 1591 1592 1592 1592 1592 1592 1590 1589 1588 1586 1585 1584 1584 1582 1581 1580 1579 1577 1575
1536 1542 1545 1549 1552 1555 1558 1560 1563 1565 1568 1571 1573 1576 1578 1579 1581 1583 1584 1585 1586 1587 1588 1589 1590 1590 1590 1591 1591 1590 1590 1590 1589 1587 1585 1584 1583 1582 1581 1580 1578 1577 1575
1534 1538 1542 1546 1549 1552 1555 1557 1560 1563 1566 1569 1571 1574 1575 1576 1578 1580 1582 1584 1585 1585 1586 1587 1588 1588 1589 1590 1590 1589 1589 1588 1588 1587 1585 1584 1583 1582 1581 1579 1578 1576 1575
1532 1536 1540 1543 1545 1549 1552 1555 1557 1560 1563 1566 1568 1570 1572 1574 1576 1578 1580 1582 1583 1584 1584 1585 1587 1587 1587 1587 1588 1588 1588 1588 1587 1587 1585 1583 1582 1581 1579 1578 1577 1576 1574
Wind_Speed
14 14 18 22 18 14 12 12 12 12 13 14 13 13 10 10 8 7 7 6 7 6 5 5 7 8 10 11 12 12 12 13 13 13 13 12 11 12 11 11 10 9 8
13 15 16 21 21 17 15 13 13 10 12 12 12 12 11 10 9 9 8 9 8 9 9 11 12 11 11 14 14 15 15 14 14 13 13 12 11 10 10 10 9 9 8
13 14 16 19 21 17 16 13 13 12 11 11 12 12 11 10 9 9 10 10 10 11 11 12 13 14 14 15 17 16 15 15 14 11 11 10 11 9 9 8 8 7 7
14 14 15 18 16 16 17 14 14 13 12 10 11 11 10 9 9 10 11 12 11 11 11 13 15 17 17 18 17 17 16 14 12 10 9 9 9 8 8 8 7 6 6
16 17 17 15 15 15 17 16 16 14 12 10 11 11 11 11 11 11 11 12 12 12 12 13 16 16 16 14 14 14 15 14 12 11 10 9 9 9 7 6 5 5 4
19 18 15 15 15 15 15 14 18 19 14 9 9 12 12 11 13 13 13 12 13 12 12 14 13 14 11 11 14 13 12 12 11 11 9 8 7 8 7 6 6 6 4
17 17 17 18 17 16 14 11 21 18 15 8 10 12 11 11 11 13 13 12 11 12 14 15 15 14 13 14 12 12 12 12 11 9 7 6 5 4 4 5 4 4 3
17 18 18 15 15 14 11 14 11 13 9 11 12 12 12 13 12 12 12 11 11 13 14 15 13 12 12 10 11 11 10 12 12 10 6 5 4 2 2 2 2 2 2
14 16 16 16 14 14 11 8 12 12 11 12 13 12 12 12 10 11 11 11 12 13 14 14 12 11 10 10 10 8 7 8 10 11 7 4 3 2 2 3 3 2 2
12 12 14 15 13 10 9 8 9 10 11 11 11 11 11 12 12 12 13 13 13 13 13 13 11 10 9 7 7 6 8 8 9 9 7 4 3 3 4 4 4 4 3
12 12 10 11 9 9 10 9 9 8 9 10 10 12 12 12 13 15 14 15 13 12 12 11 10 8 6 5 4 5 7 8 8 8 5 4 3 3 4 4 5 5 6
13 14 12 10 10 10 8 8 9 9 9 10 13 12 13 13 15 17 17 17 15 13 11 10 8 5 3 2 3 5 8 9 8 4 3 5 5 6 6 6 7 8 8
13 14 15 13 12 10 9 7 8 10 9 11 13 13 13 14 16 17 16 15 13 12 9 8 7 4 2 1 1 3 5 7 5 5 6 7 8 8 7 6 6 6 10
16 15 15 14 13 11 10 11 11 14 15 14 13 13 13 15 17 15 12 10 8 8 10 8 6 4 3 4 3 3 5 5 6 8 9 9 8 7 6 4 3 3 1
16 17 15 14 13 13 12 13 16 16 15 12 12 13 14 15 16 12 10 7 5 6 9 7 7 6 5 5 5 3 6 8 10 10 9 8 6 5 3 1 1 3 5
16 18 17 15 14 13 14 16 16 15 12 12 15 15 16 14 12 10 6 5 3 4 9 6 3 2 0 1 2 3 6 10 11 10 8 6 5 4 3 3 3 5 7
18 19 18 17 16 17 16 15 15 12 12 14 15 14 12 11 10 8 6 4 2 3 5 2 1 3 4 2 2 6 7 6 5 4 3 2 2 3 5 6 8 9 9
19 22 19 17 16 17 16 14 14 14 13 14 13 9 9 11 11 7 6 3 3 1 1 2 5 6 3 2 4 5 4 5 3 2 1 3 4 5 7 10 11 11 9
19 23 21 21 19 18 16 15 16 16 16 12 9 7 9 10 9 8 7 5 5 4 4 4 4 4 2 3 3 1 1 2 2 3 5 6 9 10 11 12 15 17 14
19 21 22 21 21 18 19 19 18 17 16 14 11 7 6 8 8 9 8 6 7 7 7 6 5 3 2 6 7 8 7 6 6 7 7 9 13 12 14 15 16 18 14
22 24 23 23 23 21 21 25 22 20 18 17 13 12 9 12 10 11 11 10 9 9 8 6 6 3 3 4 8 10 10 12 11 12 13 13 14 15 15 12 16 14 9
26 25 26 25 25 23 21 22 18 15 19 16 14 13 11 15 14 13 12 11 10 11 10 8 9 8 7 7 6 8 8 9 11 11 13 11 12 15 10 7 14 10 8
30 28 28 25 26 25 23 23 21 16 17 20 16 14 14 12 12 13 13 10 13 13 13 12 9 10 9 11 7 8 5 5 7 6 6 3 7 10 7 8 12 9 9
31 30 29 28 25 27 25 26 24 20 18 19 16 15 15 13 12 13 13 10 9 9 10 11 11 12 12 8 11 10 8 6 4 5 6 4 7 8 10 10 9 8 4
32 31 31 29 26 26 26 26 25 24 19 15 13 17 14 17 15 16 14 11 9 8 8 9 9 9 9 9 8 10 8 7 6 6 7 10 6 8 10 11 10 8 5
33 34 33 32 28 28 27 27 25 24 22 21 17 14 18 17 17 16 15 13 9 8 6 9 9 8 7 7 6 5 6 5 5 6 11 12 12 13 13 10 10 9 9
Wind_Direction
167 172 174 180 182 168 153 143 137 135 139 145 149 153 161 159 166 154 146 128 116 117 114 109 115 110 107 107 106 99 98 98 98 96 96 93 97 105 109 112 118 118 122
166 164 167 177 180 168 161 147 135 137 138 137 141 145 149 142 141 135 129 120 110 116 111 109 108 105 107 105 106 105 105 101 100 100 99 106 106 105 109 118 118 119 125
155 153 157 168 175 171 160 149 139 129 127 132 128 132 137 138 136 131 127 124 122 117 114 109 107 109 108 109 109 108 104 100 101 106 105 103 110 108 112 109 112 113 120
154 145 148 153 160 172 156 147 137 124 124 132 131 133 131 126 124 122 123 126 120 122 118 114 108 106 108 105 100 95 93 94 96 96 95 96 112 112 109 115 119 121 123
133 138 140 144 143 147 155 152 138 115 121 122 131 132 125 121 115 115 119 122 122 125 118 114 112 113 108 104 99 97 88 85 87 87 86 94 109 110 109 112 120 126 130
120 125 130 131 129 131 138 147 146 128 118 119 132 125 121 116 105 105 110 118 120 122 118 120 121 112 108 102 97 95 85 75 73 74 81 96 102 94 100 102 116 105 122
126 123 126 126 125 120 122 123 168 134 122 129 122 120 118 108 104 104 111 111 115 119 122 124 116 108 103 105 96 87 80 73 66 62 65 73 68 77 101 98 101 110 100
130 131 132 127 129 127 126 126 119 111 141 123 113 113 110 105 108 114 113 114 117 122 129 127 122 115 111 101 92 84 77 65 53 45 52 63 47 41 111 75 85 102 82
144 132 138 137 132 140 151 148 150 144 133 111 105 108 107 101 104 115 116 121 117 122 133 132 125 116 111 105 96 79 68 55 45 35 38 56 54 80 79 85 87 78 58
156 158 155 143 150 150 161 154 130 130 126 119 117 107 113 115 113 108 115 114 114 125 132 131 128 127 120 110 93 65 47 48 35 27 35 56 68 76 80 84 84 80 77
172 172 170 164 164 154 154 144 139 139 135 137 127 116 122 117 114 115 112 111 117 124 132 135 136 138 134 112 74 44 26 15 12 13 27 61 68 72 79 82 86 84 63
177 170 171 171 169 167 166 153 153 148 149 142 135 129 130 125 124 117 112 107 105 106 113 127 134 136 138 109 54 21 2 3 7 31 61 91 100 101 98 98 89 72 53
181 176 167 172 179 175 174 166 154 148 143 141 141 141 137 133 130 123 114 109 106 109 106 121 120 120 118 265 301 6 358 9 40 95 100 102 108 110 108 106 95 97 60
184 179 172 172 178 182 177 168 156 142 134 131 143 143 140 139 138 130 122 114 116 131 149 143 145 146 188 215 200 86 48 38 86 101 108 112 116 118 118 121 131 113 135
183 182 178 174 179 181 177 168 156 150 147 142 147 145 147 146 144 138 130 126 121 137 159 148 129 109 112 113 87 110 83 92 97 99 104 109 113 114 114 113 7 16 334
182 177 175 175 174 176 169 161 162 161 162 153 146 146 150 150 154 152 142 147 131 143 159 143 107 122 129 148 118 107 107 102 102 104 106 107 100 82 51 11 320 330 334
191 181 178 173 171 168 175 174 175 172 168 158 153 154 162 164 171 167 168 159 162 129 156 161 312 326 341 183 136 126 133 133 120 102 102 81 32 12 339 339 341 330 333
202 194 186 175 173 177 179 186 186 182 174 169 168 173 179 184 190 195 182 181 183 146 180 344 336 334 347 183 128 118 126 166 160 181 262 334 319 312 319 321 321 314 314
205 197 191 187 179 175 169 177 182 185 181 185 192 184 185 187 199 199 203 226 221 244 243 286 308 311 275 201 218 217 209 186 215 256 283 305 311 317 333 320 314 309 293
207 198 197 192 190 191 194 190 188 195 198 201 201 197 210 206 224 218 237 243 242 259 246 270 282 298 262 237 260 272 275 278 283 289 301 314 316 323 321 325 322 304 304
209 201 201 199 191 194 188 193 203 211 211 214 217 211 230 229 237 232 244 251 253 259 236 262 258 262 297 269 267 264 269 272 276 284 287 300 306 318 317 323 336 330 308
209 207 206 204 201 198 196 195 197 206 217 217 220 223 229 230 235 238 240 253 256 253 248 261 245 245 256 275 279 278 280 277 277 291 295 297 304 308 316 342 352 358 359
210 209 209 209 205 204 205 203 207 215 216 217 221 229 229 230 228 226 229 255 256 257 255 257 267 249 249 259 263 264 276 270 293 301 341 360 355 1 351 347 353 0 21
217 213 213 213 212 208 207 211 216 220 212 215 222 225 218 226 225 222 228 246 246 252 251 258 272 260 248 270 261 268 274 274 296 302 312 342 349 353 357 356 346 341 346
220 218 217 213 215 215 215 220 224 220 221 222 230 215 222 223 233 231 229 236 237 243 238 240 259 243 243 246 271 259 261 289 293 308 312 319 325 342 329 342 350 318 303
224 224 222 219 218 218 222 226 227 221 225 227 226 224 223 230 235 228 224 224 235 237 242 237 247 256 246 251 259 261 264 273 285 302 307 316 321 325 337 332 337 342 320